This is the latest recevied weather packets stored in our database for station/object KI4HRG. If no packets are shown the sender has not sent any weather packets the latest 10 day(s).
| Time | Temp. | Humidity | Pressure | Rain* | Wind** | Luminosity | Snow |
|---|---|---|---|---|---|---|---|
| 1777940571 | 21.67° C | 50% | 1012.7 hPa | 0 mm | - | 4 W/m² | - |
| 1777940269 | 22.22° C | 49% | 1012.6 hPa | 0 mm | - | 6 W/m² | - |
| 1777939966 | 22.22° C | 48% | 1012.7 hPa | 0 mm | - | 10 W/m² | - |
| 1777939663 | 22.78° C | 47% | 1012.7 hPa | 0 mm | - | 14 W/m² | - |
| 1777939361 | 22.78° C | 46% | 1012.7 hPa | 0 mm | - | 16 W/m² | - |
| 1777939057 | 22.78° C | 45% | 1012.7 hPa | 0 mm | - | 19 W/m² | - |
| 1777938753 | 23.33° C | 45% | 1012.7 hPa | 0 mm | - | 21 W/m² | - |
| 1777938451 | 23.33° C | 44% | 1012.7 hPa | 0 mm | - | 23 W/m² | - |
| 1777938148 | 23.89° C | 44% | 1012.7 hPa | 0 mm | - | 25 W/m² | - |
| 1777937844 | 23.89° C | 43% | 1013 hPa | 0 mm | - | 27 W/m² | - |
| 1777937540 | 23.89° C | 44% | 1013 hPa | 0 mm | - | 30 W/m² | - |
| 1777937237 | 23.89° C | 43% | 1013 hPa | 0 mm | - | 30 W/m² | - |
| 1777936934 | 23.89° C | 45% | 1013 hPa | 0 mm | - | 32 W/m² | - |
| 1777936631 | 23.89° C | 43% | 1012.9 hPa | 0 mm | - | 33 W/m² | - |
| 1777936327 | 24.44° C | 43% | 1012.9 hPa | 0 mm | - | 35 W/m² | - |
| 1777936023 | 24.44° C | 42% | 1013 hPa | 0 mm | - | 63 W/m² | - |
| 1777935722 | 24.44° C | 42% | 1013.1 hPa | 0 mm | - | 46 W/m² | - |
| 1777935421 | 25° C | 42% | 1013 hPa | 0 mm | - | 65 W/m² | - |
| 1777935116 | 25° C | 41% | 1013.1 hPa | 0 mm | - | 40 W/m² | - |
| 1777934814 | 25° C | 41% | 1013.1 hPa | 0 mm | - | 42 W/m² | - |
| 1777934510 | 25.56° C | 40% | 1013.2 hPa | 0 mm | - | 44 W/m² | - |
| 1777934208 | 25.56° C | 40% | 1013.1 hPa | 0 mm | - | 207 W/m² | - |
| 1777933903 | 26.11° C | 39% | 1013.2 hPa | 0 mm | - | 228 W/m² | - |
| 1777933600 | 26.11° C | 41% | 1013.1 hPa | 0 mm | - | 241 W/m² | - |
| 1777933297 | 26.11° C | 38% | 1013.3 hPa | 0 mm | - | 264 W/m² | - |
* Rain latest hour (hover to see other rain measurements)
** Current wind speed in m/s (hover to see current wind gust speed)